This is the latest recevied weather packets stored in our database for station/object N4PWG. If no packets are shown the sender has not sent any weather packets the latest 10 day(s).
| Time | Temp. | Humidity | Pressure | Rain* | Wind** | Luminosity | Snow |
|---|---|---|---|---|---|---|---|
| 1777637095 | 8.33° C | 99% | 1034 hPa | 0 mm | - | 32 W/m² | - |
| 1777636791 | 8.33° C | 99% | 1033.7 hPa | 0 mm | - | 27 W/m² | - |
| 1777636488 | 7.78° C | 99% | 1033.6 hPa | 0 mm | - | 25 W/m² | - |
| 1777636184 | 7.78° C | 99% | 1033.8 hPa | 0 mm | - | 22 W/m² | - |
| 1777635879 | 7.78° C | 99% | 1033.6 hPa | 0 mm | - | 21 W/m² | - |
| 1777635576 | 7.78° C | 99% | 1033.4 hPa | 0 mm | - | 18 W/m² | - |
| 1777635272 | 7.22° C | 99% | 1033.2 hPa | 0 mm | - | 16 W/m² | - |
| 1777634969 | 7.22° C | 99% | 1033.5 hPa | 0 mm | - | 12 W/m² | - |
| 1777634666 | 7.22° C | 99% | 1033.4 hPa | 0 mm | - | 10 W/m² | - |
| 1777634363 | 7.22° C | 99% | 1033.3 hPa | 0 mm | - | 7 W/m² | - |
| 1777634060 | 7.22° C | 99% | 1033.3 hPa | 0 mm | - | 5 W/m² | - |
| 1777633756 | 6.67° C | 99% | 1033.2 hPa | 0 mm | - | 3 W/m² | - |
| 1777633454 | 7.22° C | 99% | 1033.2 hPa | 0 mm | - | 1 W/m² | - |
| 1777633152 | 7.22° C | 99% | 1033.1 hPa | 0 mm | - | 0 W/m² | - |
| 1777632848 | 6.67° C | 99% | 1033 hPa | 0 mm | - | 0 W/m² | - |
| 1777632543 | 6.67° C | 99% | 1033.1 hPa | 0 mm | - | 0 W/m² | - |
| 1777632241 | 7.22° C | 99% | 1032.9 hPa | 0 mm | - | 0 W/m² | - |
| 1777631938 | 7.22° C | 99% | 1033 hPa | 0 mm | - | 0 W/m² | - |
| 1777631637 | 7.22° C | 99% | 1032.9 hPa | 0 mm | - | 0 W/m² | - |
| 1777631334 | 7.22° C | 99% | 1032.9 hPa | 0 mm | - | 0 W/m² | - |
| 1777631030 | 7.22° C | 99% | 1032.7 hPa | 0 mm | - | 0 W/m² | - |
| 1777630726 | 7.22° C | 99% | 1032.7 hPa | 0 mm | - | 0 W/m² | - |
| 1777630423 | 6.67° C | 99% | 1032.8 hPa | 0 mm | - | 0 W/m² | - |
| 1777630121 | 7.22° C | 99% | 1032.7 hPa | 0 mm | - | 0 W/m² | - |
| 1777629818 | 7.22° C | 99% | 1032.8 hPa | 0 mm | - | 0 W/m² | - |
* Rain latest hour (hover to see other rain measurements)
** Current wind speed in m/s (hover to see current wind gust speed)